Regional Weather Roundup
Issued by NWS

Home | Current Version | Previous Version | Text Only | Print | Product List | Glossary Off
Versions: 1 2 3 4 5 6 7 8 9 10 11 12 13 14 15 16 17 18 19 20 21 22 23 24 25 26 27 28 29 30 31 32 33 34 35 36 37 38 39 40 41 42 43 44 45 46 47 48 49 50

000
ASUS43 KLSX 210057
RWRMO

WEATHER SUMMARY FOR MISSOURI
NATIONAL WEATHER SERVICE SPRINGFIELD MO
700 PM CST MON FEB 20 2017

NOTE: "FAIR" INDICATES FEW OR NO CLOUDS BELOW 12,000 FEET WITH NO
       SIGNIFICANT WEATHER AND/OR OBSTRUCTIONS TO VISIBILITY.
       CURRENT SKY AND/OR WEATHER CONDITIONS ARE NOT AVAILABLE FOR
       CHILLICOTHE AND FARMINGTON.

MOZ001>031-035>038-043-044-053-054-210200-
...NORTHERN AND WESTERN MISSOURI...

CITY           SKY/WX    TMP DP  RH WIND       PRES   REMARKS
KANSAS CTY INT CLOUDY    62  51  67 SW10      29.89R
LEE`S SUMMIT   CLOUDY    61  55  81 SW7       29.90R
ST JOSEPH      MOCLDY    60  52  74 S7        29.89R
CHILLICOTHE      N/A     61  57  87 S5        29.89R

$$
MOZ066>068-077>081-088>096-101>105-210200-
...SOUTHWEST MISSOURI...

CITY           SKY/WX    TMP DP  RH WIND       PRES   REMARKS
SPRINGFIELD    CLOUDY    61  53  75 W7        29.92R
JOPLIN         CLOUDY    61  55  81 SW8       29.93R
BRANSON        CLOUDY    64  55  72 CALM      29.94R

$$
MOZ032>034-039>042-045>050-055>058-069>072-210200-
...CENTRAL MISSOURI...

CITY           SKY/WX    TMP DP  RH WIND       PRES   REMARKS
COLUMBIA       NOT AVBL
JEFFERSON CITY CLOUDY    63  61  93 N3        29.89S
ROLLA          CLOUDY    68  56  65 S7        29.89R
SEDALIA        LGT RAIN  64  57  78 SW9       29.91R
WARRENSBURG    CLOUDY    61  54  77 S5        29.90R

$$
MOZ051-052-059>065-210200-
...EAST CENTRAL MISSOURI...

CITY           SKY/WX    TMP DP  RH WIND       PRES   REMARKS
ST LOUIS INTL  CLOUDY    70  54  56 SE17G24   29.93R

$$
MOZ072>076-082>087-097>100-106>115-210200-
...SOUTH CENTRAL AND SOUTHEAST MISSOURI...

CITY           SKY/WX    TMP DP  RH WIND       PRES   REMARKS
CAPE GIRARDEAU PTCLDY    63  54  72 SE8       29.97F
POPLAR BLUFF   MOCLDY    65  55  70 SE7       29.94F
WEST PLAINS    CLOUDY    69  57  65 S8        29.93R

$$



USA.gov is the U.S. government's official web portal to all federal, state and local government web resources and services.